Regional Weather Roundup
Issued by NWS Albany, NY

Home | Current Version | Previous Version | Text Only | Print | Product List | Glossary On
Versions: 1 2 3 4 5 6 7 8 9 10 11 12 13 14 15 16 17 18 19 20 21 22 23 24 25 26 27 28 29 30 31 32 33 34 35 36 37 38 39 40 41 42 43 44 45 46 47 48 49 50
000
ASUS41 KALY 231010
RWRALY

NEW YORK STATE HOURLY WEATHER ROUNDUP
NATIONAL WEATHER SERVICE ALBANY NY
600 AM EDT WED JUL 23 2014

NOTE: "FAIR" INDICATES FEW OR NO CLOUDS BELOW 12,000 FEET WITH NO
SIGNIFICANT WEATHER AND/OR NO OBSTRUCTIONS TO VISIBILITY.

NYZ032-033-038>043-046>054-057>066-NYZ062>081-231100-
EAST


CITY           SKY/WX    TMP DP  RH WIND       PRES   REMARKS
ALBANY         PTCLDY    73  69  87 SE6       29.91S
GLENS FALLS    PTCLDY    71  68  90 S6        29.89F FOG
POUGHKEEPSIE   CLEAR     72  67  84 CALM      29.95S
NEWBURGH       PTCLDY    70  68  94 W6        29.98F
MONTGOMERY     CLEAR     69  66  90 CALM      29.96F
WHITE PLAINS   CLEAR     70  64  81 CALM      29.98F
ISLIP          MOCLDY    72  66  81 SW9       29.98F
NEW YORK CITY  PTCLDY    74  62  66 SW12      29.97F
CENTRAL PARK   PTCLDY    73  63  70 VRB3      30.00F
$$

NYZ005>009-017-018-044>046-055-056-231100-
CENTRAL


CITY           SKY/WX    TMP DP  RH WIND       PRES   REMARKS
FULTON         PTCLDY    75  69  81 S9        29.86F
SYRACUSE       MOCLDY    79  69  71 SW10      29.86F
ROME           PTCLDY    71  68  90 E7        29.89F
ELMIRA         MOCLDY    68  67  96 CALM      29.94S
BINGHAMTON     CLEAR     70  67  90 SW9       29.98S
MONTICELLO     MOCLDY    64  64 100 CALM      30.01S VSB 1/2
$$

NYZ026>034-041>043-231100-
NORTH


CITY           SKY/WX    TMP DP  RH WIND       PRES   REMARKS
WATERTOWN      PTCLDY    78  66  66 SW13G21   29.82S
FORT DRUM      NOT AVBL
MASSENA        PTCLDY    75  69  81 SW14      29.78F
SARANAC LAKE   PTCLDY    66  64  93 SW7       29.88F FOG
PLATTSBURGH    CLEAR     68  65  90 CALM      29.80F
$$

NYZ001>004-010>016-019>021-231100-
WEST


CITY           SKY/WX    TMP DP  RH WIND       PRES   REMARKS
NIAGARA FALLS  LGT RAIN  75  69  81 SW10      29.88R
BUFFALO        CLOUDY    77  68  73 W12       29.89R
DUNKIRK        CLOUDY    77  66  68 SW10      29.92R
JAMESTOWN      CLOUDY    70  66  88 SW8       29.99S
WELLSVILLE     PTCLDY    73  65  75 W7        30.01R
ROCHESTER      MOCLDY    73  68  84 SW8       29.87R
PENN YAN       CLEAR     73  69  87 S6        29.92S
$$

             KEY
       WCI = WIND CHILL INDEX
       VSB = VISIBILITY
       HX  = HEAT INDEX
$$



USA.gov is the U.S. government's official web portal to all federal, state and local government web resources and services.